Regional Weather Roundup
Issued by NWS

Home | Current Version | Previous Version | Text Only | Print | Product List | Glossary On
Versions: 1 2 3 4 5 6 7 8 9 10 11 12 13 14 15 16 17 18 19 20 21 22 23 24 25 26 27 28 29 30 31 32 33 34 35 36 37 38 39 40 41 42 43 44 45 46 47 48 49 50
000
ASUS44 KOUN 292010
RWROK

WEATHER ROUNDUP FOR OKLAHOMA
NATIONAL WEATHER SERVICE NORMAN OK
300 PM CDT SAT AUG 29 2015

NOTE: "FAIR" INDICATES FEW OR NO CLOUDS BELOW 12,000 FEET WITH NO
      SIGNIFICANT WEATHER AND/OR OBSTRUCTIONS TO VISIBILITY.

OKZ001>007-009>012-014-015-017-292100-
NORTHWEST OKLAHOMA AND THE PANHANDLE

CITY           SKY/WX    TMP DP  RH WIND       PRES   REMARKS
GAGE           SUNNY     89  53  29 N13G22    30.07F
GUYMON         SUNNY     89  50  26 NE10      30.13F
ENID/WOODRING  MOSUNNY   86  63  45 NW12G17   30.00F
$$

OKZ016-021>023-033>039-044-045-292100-
SOUTHWEST OKLAHOMA

CITY           SKY/WX    TMP DP  RH WIND       PRES   REMARKS
LAWTON/REGL    PTSUNNY   91  64  40 E8        29.97F HX  92
LAWTON/FT SILL PTSUNNY   93  69  46 VRB6      29.96F HX  98
FREDERICK      CLOUDY    92  65  40 E6        29.96F HX  94
CLINTON        SUNNY     90  59  35 N12G20    30.05F
HOBART         FAIR      93  63  36 NE14      30.01F HX  94
ALTUS AFB      PTSUNNY   94  64  36 NE7G16    29.99F HX  95
$$

OKZ018>020-024>031-292100-
CENTRAL OKLAHOMA

CITY           SKY/WX    TMP DP  RH WIND       PRES   REMARKS
OKLAHOMA CITY  MOSUNNY   91  65  41 N8        29.99F HX  93
OKC/WILEY POST SUNNY     90  64  42 VRB6      29.99F HX  91
OKC/TINKER AFB MOSUNNY   90  67  47 VRB5      29.98F HX  93
STILLWATER     SUNNY     86  64  47 N10       29.99F
GUTHRIE        SUNNY     88  62  41 VRB7      29.99F
$$

OKZ008-013-054>072-292100-
NORTHEAST OKLAHOMA

CITY           SKY/WX    TMP DP  RH WIND       PRES   REMARKS
TULSA          MOSUNNY   86  72  62 N8        29.96F HX  92
TULSA/JONES    MOSUNNY   85  71  63 VRB3      29.98R HX  90
PONCA CITY     PTSUNNY   82  64  54 N10       30.00S
BARTLESVILLE   PTSUNNY   82  67  60 CALM      30.00S
MUSKOGEE       SUNNY     89  71  55 S8        29.97F HX  95
$$

OKZ032-040>043-046>053-073>077-292100-
SOUTH CENTRAL/SOUTHEAST OKLAHOMA

CITY           SKY/WX    TMP DP  RH WIND       PRES   REMARKS
ARDMORE/DWNTWN PTSUNNY   95  59  30 SE3       29.94F HX  94
MCALESTER      PTSUNNY   86  69  56 VRB6      29.98F HX  90
$$



USA.gov is the U.S. government's official web portal to all federal, state and local government web resources and services.